Wetbulb
45.43 45.73 45.41 45.70 46.30 46.99 45.18 40.69 32.69 45.13 46.68 34.56 33.78 29.43 30.96 35.07 33.21 37.22 36.10 35.97 34.30 32.69 33.31 31.71 32.62 34.24 37.14 39.56 41.99 39.01 41.76 36.72 32.46 35.68 41.57 43.31 42.12 40.54 40.56 34.54 32.63 34.91 34.26 36.19
45.18 45.30 45.27 45.68 46.54 46.24 42.68 36.97 36.40 45.20 44.57 29.48 30.08 32.83 31.17 32.45 32.02 34.18 34.14 33.10 34.75 35.58 32.61 29.78 33.02 34.67 40.63 39.95 38.25 35.99 41.82 37.12 31.29 33.39 38.23 41.70 38.84 39.99 41.17 39.78 37.62 34.56 32.33 35.74
44.98 45.06 44.94 45.43 45.89 46.22 43.33 33.84 29.43 36.27 39.85 37.57 33.57 30.72 29.27 28.14 33.89 33.25 35.52 34.08 35.19 33.65 32.02 34.29 31.70 33.02 37.44 39.63 39.21 42.38 44.35 38.95 35.50 30.76 33.91 38.73 36.72 38.90 40.77 38.79 34.09 35.01 35.70 37.97
44.76 44.79 44.89 45.83 45.75 46.71 42.64 33.30 31.21 35.51 29.51 31.70 33.31 33.76 31.94 28.85 28.25 33.38 35.25 32.37 32.88 31.76 28.51 29.98 30.47 33.42 34.88 37.25 39.89 42.00 42.02 33.94 35.76 36.26 37.40 38.06 37.59 37.74 38.53 37.34 38.00 33.95 37.24 38.33
45.34 45.46 45.44 45.61 45.98 46.57 39.92 31.47 33.04 37.03 34.58 34.81 33.28 33.09 30.67 28.98 30.03 31.78 29.83 30.24 32.75 33.09 29.84 31.19 29.55 32.66 32.56 31.80 36.59 36.31 37.40 34.52 37.44 34.47 38.10 38.03 36.03 38.56 38.55 39.30 39.67 38.82 39.18 38.57
45.48 45.55 45.41 45.62 45.62 45.42 38.43 39.66 38.94 37.85 35.29 33.74 32.57 31.48 31.76 31.08 32.55 33.45 35.06 34.12 32.21 31.11 33.72 36.25 37.24 37.49 37.03 36.29 33.97 32.76 33.70 36.33 34.35 30.18 36.78 36.72 31.05 35.66 38.70 39.18 40.91 40.43 36.87 41.66
46.24 45.66 45.47 45.52 45.73 45.40 40.97 39.67 38.86 33.93 29.23 32.49 32.77 33.73 33.78 32.64 33.24 31.26 34.93 35.78 34.30 37.31 41.10 40.20 39.00 36.77 35.92 35.95 35.57 36.73 32.76 32.22 34.55 30.36 32.15 24.98 35.83 42.11 41.92 39.08 41.11 42.59 42.07 42.68
46.68 46.26 45.62 45.50 45.66 46.14 41.92 42.55 39.23 35.39 29.86 33.91 33.57 33.96 33.15 34.58 35.24 33.86 34.60 37.10 39.26 41.48 37.65 32.68 30.14 30.31 32.42 33.87 34.79 35.02 36.36 33.74 32.39 29.77 29.04 32.93 35.88 38.61 38.17 38.13 38.00 43.06 42.52 44.53
46.13 46.17 46.04 45.40 45.75 46.29 43.56 42.51 43.52 39.48 34.13 31.78 36.17 34.19 34.91 31.80 31.83 32.76 34.58 39.91 41.67 39.66 35.10 31.16 25.72 24.43 28.16 28.33 32.68 36.99 36.49 37.65 33.84 30.27 26.64 24.41 34.36 40.32 44.65 43.17 33.85 43.48 44.65 44.93
46.05 45.98 45.98 45.58 45.45 45.71 43.59 42.28 44.37 40.38 33.66 37.19 38.01 34.18 34.23 36.53 34.25 32.47 34.12 35.31 35.99 38.65 33.13 27.89 26.86 26.00 31.29 26.49 29.45 29.40 30.99 33.37 30.18 29.89 28.03 32.53 39.02 41.94 45.89 32.50 35.64 44.00 44.25 45.62
46.08 45.91 45.47 45.71 45.75 46.04 44.00 41.45 45.33 40.62 34.20 38.08 40.44 40.57 37.92 37.22 35.82 31.79 34.97 34.23 34.44 34.28 30.06 29.56 28.73 27.87 30.52 29.62 32.35 32.94 31.25 29.81 29.59 30.79 28.27 26.20 41.44 42.95 37.94 42.37 45.47 44.51 45.57 46.00
45.99 45.94 45.24 45.55 46.22 46.17 45.78 40.66 45.34 44.94 38.76 37.88 42.36 43.19 43.59 42.54 41.12 37.66 37.75 36.05 34.86 35.52 32.15 31.62 31.93 29.04 29.84 30.60 26.81 35.42 31.25 35.37 34.05 34.70 34.37 40.81 43.40 42.88 44.80 46.41 45.02 45.59 45.69 46.68
45.89 45.92 45.42 45.22 45.69 46.50 45.95 40.90 44.15 41.21 34.52 36.37 37.25 38.31 42.96 45.16 44.68 45.39 36.05 37.59 40.09 37.38 39.05 34.82 33.04 29.13 31.87 28.93 30.40 33.25 35.98 38.35 35.45 35.11 38.76 40.19 41.10 43.06 44.15 44.38 43.91 45.13 46.02 46.69
45.97 45.85 45.40 45.07 45.22 45.19 44.96 41.90 43.41 40.39 37.49 32.51 34.47 41.96 40.32 45.11 44.76 44.99 44.16 42.79 44.10 42.80 41.66 35.78 32.91 31.86 35.30 31.52 33.50 33.00 35.63 37.36 36.07 35.70 38.74 40.12 42.30 42.31 42.45 42.21 44.21 43.96 44.21 46.62
46.09 46.01 45.57 45.47 44.89 45.83 44.34 43.45 43.10 43.76 37.59 30.68 32.74 39.86 41.37 43.10 43.20 42.29 43.75 43.09 41.01 40.28 37.99 35.30 34.08 35.37 36.54 35.30 35.48 34.06 37.77 36.13 34.69 33.69 36.86 36.53 38.37 41.86 41.89 39.80 41.06 41.09 38.53 37.85
46.20 46.13 45.83 45.50 45.30 44.78 41.94 35.09 42.43 44.47 43.57 35.67 29.56 38.91 39.01 40.09 41.14 41.27 41.34 42.05 40.90 40.48 38.24 36.00 37.87 39.72 37.46 32.47 31.15 35.90 37.90 38.19 37.98 36.38 39.41 39.26 40.31 41.86 39.37 37.73 37.67 38.45 35.69 33.71
46.16 46.11 45.87 45.50 45.21 42.68 38.33 35.83 41.14 44.15 43.96 35.01 29.48 32.02 38.77 40.03 41.02 41.86 41.74 43.02 41.68 39.93 38.59 37.01 37.06 37.23 39.16 33.37 29.32 33.62 34.67 34.14 35.13 37.92 37.12 38.30 39.36 38.24 36.94 35.76 35.40 35.66 33.32 31.89
46.18 45.85 45.66 45.34 44.88 44.38 40.83 42.91 44.73 44.27 39.95 37.92 27.65 28.49 34.88 40.94 36.91 35.23 40.60 37.63 38.72 38.24 36.05 36.38 35.75 37.61 36.90 30.65 29.53 31.00 30.40 31.34 34.23 32.22 34.59 35.41 38.30 37.74 34.39 33.18 32.76 31.06 27.86 27.94
46.40 45.99 45.37 43.63 41.42 38.38 40.81 45.45 45.45 45.47 39.45 30.98 29.46 26.50 28.68 39.45 36.34 36.83 34.61 37.67 32.00 37.18 32.53 33.93 36.25 32.92 27.61 25.74 26.28 26.88 27.74 27.58 28.26 31.47 33.40 34.82 34.17 33.51 30.95 30.65 28.93 28.39 26.25 26.86
44.18 41.41 36.90 33.11 40.36 45.49 44.41 39.77 36.59 36.80 37.21 35.43 30.26 32.66 31.05 35.59 34.06 32.92 32.89 33.70 31.94 29.60 32.62 34.72 30.14 23.57 26.07 26.31 26.36 26.40 26.26 27.35 28.54 27.28 28.26 27.99 28.46 29.61 28.11 27.08 27.32 26.62 25.64 24.75
40.65 36.37 35.53 41.87 44.63 39.40 36.33 31.79 30.72 32.47 30.04 30.98 32.03 31.70 30.99 34.98 31.96 31.28 32.53 31.95 30.80 25.97 29.75 30.63 24.34 20.24 22.06 25.07 24.89 25.18 25.26 25.98 26.71 27.54 27.89 27.46 27.06 26.25 26.06 24.85 24.85 24.15 23.47 21.90
40.70 39.77 39.46 37.09 32.30 30.79 28.55 27.59 28.99 29.67 27.50 30.78 32.06 32.12 33.50 33.07 34.84 33.19 32.41 29.34 30.30 24.39 28.22 23.10 15.23 20.06 22.88 23.32 23.29 23.46 23.95 24.76 24.70 25.34 24.78 24.95 24.91 24.71 23.67 23.06 21.95 21.46 21.20 20.45
35.12 30.22 25.42 26.31 21.93 14.74 14.62 17.25 21.97 23.44 26.15 27.21 30.16 30.58 32.13 33.62 34.41 32.45 31.84 24.95 22.59 25.22 17.84 13.11 16.19 21.33 22.39 22.32 22.75 22.39 23.36 23.46 22.59 22.34 23.09 22.37 21.39 21.72 21.13 19.82 20.40 19.85 18.61 18.97
24.39 19.74 10.42 11.04 9.86 15.29 17.03 17.76 20.41 25.31 25.83 25.67 27.76 31.56 29.80 29.68 26.97 25.47 22.89 21.53 22.92 14.84 10.46 10.02 16.16 19.57 21.41 22.30 22.79 21.13 20.20 20.40 20.20 19.81 19.77 19.12 18.81 18.84 19.24 18.86 18.33 16.93 15.59 16.19
18.24 17.49 9.63 12.93 17.00 18.99 19.00 20.27 21.94 24.40 26.00 27.33 30.68 27.36 26.88 22.46 19.60 20.57 20.85 15.58 10.85 11.61 10.03 14.58 17.63 19.50 19.81 19.66 20.56 20.55 20.07 19.81 19.42 19.45 18.61 18.20 17.95 17.49 17.26 17.83 17.77 17.42 16.42 15.87
18.92 15.76 13.57 14.89 14.79 15.06 15.46 16.89 18.32 23.14 22.97 28.52 27.34 23.85 19.57 17.80 17.09 13.18 11.09 10.86 7.65 10.41 13.88 17.00 18.26 17.97 18.64 18.96 19.59 19.46 20.59 20.17 19.67 19.60 19.15 18.59 17.60 16.87 16.76 17.36 16.78 15.96 15.30 13.94
16.99 13.83 16.17 12.47 13.68 13.24 14.55 16.14 18.53 22.64 24.71 21.06 21.58 15.18 15.00 20.17 14.04 9.81 12.33 9.56 12.64 15.10 15.54 16.73 17.21 16.73 17.33 18.58 18.73 18.40 18.34 17.95 18.51 19.00 18.77 18.06 18.39 17.70 16.28 14.35 15.53 15.90 15.50 14.53
MSLP
1013.53 1013.87 1014.31 1014.82 1015.29 1015.66 1015.94 1015.79 1014.93 1014.66 1014.79 1015.67 1015.05 1014.92 1014.93 1014.60 1013.61 1013.12 1012.67 1012.28 1011.76 1011.25 1010.41 1009.52 1008.75 1008.14 1007.75 1007.36 1006.15 1006.18 1006.22 1005.88 1005.51 1004.97 1004.45 1004.34 1004.39 1004.61 1004.87 1005.08 1005.26 1005.03 1004.13 1002.48
1012.68 1013.14 1013.58 1014.08 1014.61 1015.07 1015.37 1014.90 1014.74 1014.45 1013.84 1013.87 1014.05 1014.60 1014.60 1014.31 1013.94 1013.37 1013.03 1012.63 1012.40 1011.96 1011.31 1010.66 1009.74 1009.05 1008.32 1008.18 1007.58 1007.44 1006.80 1006.61 1006.37 1005.74 1005.24 1004.82 1004.90 1005.09 1004.95 1004.98 1005.17 1004.29 1004.08 1002.51
1011.70 1012.20 1012.73 1013.23 1013.79 1014.28 1015.07 1014.95 1014.47 1013.99 1012.73 1012.61 1013.07 1013.60 1013.96 1014.00 1013.72 1013.62 1013.22 1012.93 1012.76 1012.42 1011.97 1011.31 1010.59 1009.93 1009.04 1008.67 1008.25 1007.76 1007.28 1007.32 1007.25 1006.68 1006.55 1006.58 1006.15 1005.83 1005.60 1005.43 1004.86 1004.05 1003.03 1002.69
1010.61 1011.10 1011.69 1012.24 1012.90 1013.41 1014.46 1014.06 1013.28 1012.78 1012.19 1011.98 1012.26 1012.69 1012.80 1013.18 1013.34 1013.22 1013.00 1012.93 1012.77 1012.59 1012.39 1011.84 1011.10 1010.57 1009.99 1009.38 1008.87 1008.12 1007.73 1007.69 1007.82 1007.82 1007.15 1006.84 1006.57 1006.12 1005.53 1005.20 1004.62 1003.83 1003.08 1002.27
1009.21 1009.78 1010.41 1011.08 1011.82 1012.52 1013.27 1012.71 1012.75 1012.33 1011.76 1011.61 1011.81 1011.85 1012.03 1012.11 1012.62 1012.71 1012.54 1012.45 1012.24 1012.34 1012.28 1011.78 1011.31 1010.89 1010.74 1010.42 1009.77 1009.26 1008.97 1008.43 1008.16 1007.90 1007.32 1006.66 1006.12 1005.64 1004.95 1004.30 1003.83 1003.02 1002.71 1001.99
1007.53 1008.18 1008.90 1009.76 1010.61 1011.48 1011.59 1011.58 1011.83 1011.70 1010.68 1010.75 1010.94 1010.61 1010.97 1011.41 1011.89 1011.96 1011.71 1011.63 1011.83 1011.88 1011.81 1011.68 1011.47 1011.28 1011.03 1010.95 1010.82 1010.56 1010.02 1009.29 1009.01 1008.32 1007.68 1007.14 1005.90 1004.58 1004.13 1003.56 1003.14 1002.80 1002.35 1001.88
1005.59 1006.29 1007.14 1008.04 1008.95 1009.62 1010.31 1010.52 1011.08 1011.32 1010.33 1010.00 1009.71 1010.06 1010.42 1010.44 1010.77 1011.14 1011.10 1011.29 1011.17 1011.39 1011.46 1011.57 1011.18 1011.08 1010.72 1010.63 1010.50 1010.65 1010.37 1010.20 1009.76 1009.11 1008.45 1006.96 1004.62 1003.67 1003.54 1003.45 1002.89 1002.33 1001.92 1001.79
1003.65 1004.32 1005.19 1006.25 1007.16 1008.00 1009.07 1009.63 1009.86 1009.94 1009.52 1009.56 1009.12 1008.97 1009.56 1010.10 1010.42 1010.63 1010.70 1010.78 1011.00 1011.32 1011.90 1012.33 1011.39 1010.83 1010.55 1009.75 1009.59 1009.81 1010.27 1010.47 1010.08 1009.43 1008.22 1006.12 1004.52 1003.60 1003.30 1003.08 1003.02 1003.02 1002.59 1002.15
1001.85 1002.48 1003.30 1004.40 1005.41 1006.44 1007.80 1008.39 1008.96 1009.15 1008.85 1007.99 1008.58 1008.52 1008.58 1009.12 1009.92 1010.60 1010.46 1010.83 1011.40 1011.88 1012.14 1011.93 1011.32 1010.59 1009.91 1009.39 1008.82 1008.94 1009.65 1009.96 1010.15 1009.50 1008.04 1006.15 1004.14 1003.55 1003.27 1003.20 1003.06 1003.05 1002.93 1002.38
1000.08 1000.86 1001.70 1002.66 1003.80 1004.94 1006.18 1006.72 1007.84 1008.28 1008.03 1007.61 1007.35 1007.06 1007.53 1008.37 1009.22 1009.77 1010.30 1011.02 1011.61 1011.97 1011.97 1011.84 1011.18 1010.45 1009.76 1009.12 1008.46 1008.87 1009.37 1009.49 1009.17 1008.91 1007.96 1005.82 1004.44 1003.70 1003.51 1003.53 1003.52 1002.86 1002.63 1002.11
998.37 999.41 1000.30 1001.27 1002.31 1003.51 1004.64 1005.59 1006.31 1006.89 1007.28 1006.91 1006.29 1006.21 1006.70 1007.55 1008.25 1008.80 1009.69 1010.77 1011.07 1011.31 1011.34 1011.15 1010.70 1010.28 1009.59 1009.00 1008.29 1008.03 1008.11 1008.52 1008.36 1008.39 1007.49 1005.89 1004.36 1004.17 1004.03 1003.96 1003.46 1003.27 1002.44 1001.99
996.86 998.08 999.05 1000.07 1000.92 1002.25 1003.73 1004.51 1005.29 1006.41 1007.36 1007.22 1006.82 1006.11 1005.91 1005.64 1006.18 1007.74 1008.59 1008.33 1008.96 1009.59 1010.10 1010.36 1010.05 1009.88 1009.46 1008.68 1008.13 1007.72 1007.76 1007.16 1006.83 1006.84 1005.93 1004.96 1004.69 1004.56 1004.42 1004.24 1003.77 1003.47 1003.17 1001.93
995.98 997.05 998.10 999.30 1000.22 1001.30 1002.60 1003.61 1004.38 1005.95 1006.84 1007.15 1007.05 1006.10 1005.98 1006.23 1006.50 1006.55 1007.58 1007.99 1007.94 1008.51 1008.46 1009.18 1009.34 1009.16 1008.74 1008.43 1007.96 1007.30 1006.93 1006.57 1006.55 1006.45 1005.47 1004.99 1004.90 1005.07 1005.50 1005.30 1004.78 1004.10 1003.54 1002.53
995.12 996.16 997.43 998.72 999.80 1000.84 1001.83 1002.75 1003.67 1004.88 1005.83 1006.34 1006.54 1006.15 1005.87 1005.67 1006.13 1006.34 1006.57 1006.82 1007.48 1008.08 1008.43 1008.67 1008.83 1008.69 1008.17 1008.03 1007.60 1007.36 1006.87 1006.66 1006.59 1006.33 1005.75 1005.50 1004.96 1005.73 1006.08 1005.72 1005.23 1004.58 1003.80 1002.97
994.11 995.54 996.98 998.34 999.57 1000.33 1001.64 1002.88 1003.79 1004.31 1004.94 1005.64 1005.91 1005.52 1005.16 1005.27 1005.83 1006.18 1006.51 1006.83 1007.61 1008.07 1008.25 1008.55 1008.63 1008.24 1008.13 1008.15 1008.02 1007.57 1007.12 1007.11 1007.35 1007.34 1007.73 1007.62 1007.07 1006.96 1007.08 1006.86 1006.37 1005.98 1005.58 1004.81
993.92 995.30 996.79 998.24 999.64 1000.45 1001.62 1003.31 1004.19 1004.26 1004.46 1005.13 1005.49 1004.92 1004.78 1005.07 1005.58 1005.90 1006.32 1006.73 1007.27 1007.86 1008.00 1008.28 1008.26 1008.03 1008.02 1008.42 1008.45 1008.14 1008.06 1008.24 1008.49 1008.41 1008.41 1008.21 1007.99 1007.81 1007.87 1007.81 1007.57 1007.28 1007.12 1006.87
993.76 995.29 996.91 998.42 999.81 1000.85 1001.72 1002.22 1002.49 1003.87 1004.38 1004.91 1005.42 1005.01 1004.57 1004.86 1005.54 1005.89 1006.25 1006.57 1006.85 1007.38 1007.78 1008.03 1008.14 1008.12 1008.14 1008.91 1009.25 1009.46 1009.51 1009.51 1009.43 1009.26 1008.94 1008.43 1008.45 1008.43 1008.67 1008.60 1008.30 1008.39 1008.57 1007.91
994.10 995.53 997.48 998.98 1000.34 1001.28 1001.75 1001.82 1002.24 1003.55 1004.42 1004.92 1005.49 1005.40 1005.08 1004.73 1005.29 1006.07 1006.47 1006.57 1006.96 1007.17 1007.73 1007.99 1008.21 1008.64 1008.90 1009.71 1010.50 1010.69 1010.81 1010.65 1010.31 1010.47 1010.27 1009.90 1009.27 1009.17 1009.39 1009.57 1008.81 1009.18 1009.02 1008.66
995.35 996.86 998.62 1000.01 1001.07 1001.61 1002.19 1002.66 1003.10 1003.39 1004.28 1004.82 1005.36 1005.23 1005.03 1004.89 1005.32 1005.94 1006.59 1006.50 1006.54 1007.12 1007.50 1007.96 1008.17 1008.99 1010.32 1011.61 1011.95 1012.15 1012.32 1012.25 1011.91 1011.35 1010.64 1010.31 1010.06 1010.28 1010.49 1010.38 1010.13 1010.38 1010.69 1010.49
996.98 998.35 999.65 1000.42 1001.06 1001.71 1002.55 1003.43 1003.82 1004.19 1004.45 1004.83 1005.09 1005.19 1005.14 1005.35 1005.30 1005.77 1006.05 1006.01 1006.63 1007.28 1007.75 1008.10 1008.94 1011.08 1012.64 1013.22 1013.48 1013.54 1013.44 1013.13 1012.58 1011.97 1011.30 1011.27 1011.18 1011.61 1011.58 1011.49 1011.54 1011.37 1011.66 1011.71
998.22 999.15 999.83 1000.90 1001.24 1002.15 1003.22 1004.01 1004.39 1004.68 1004.90 1005.06 1005.05 1005.06 1005.08 1005.18 1005.22 1005.70 1006.08 1006.46 1007.27 1007.99 1008.64 1008.97 1010.57 1012.27 1013.77 1014.36 1014.50 1014.59 1014.41 1014.01 1013.56 1013.27 1012.73 1012.70 1012.76 1012.87 1012.60 1012.66 1012.73 1012.71 1013.03 1013.27
999.03 999.53 1001.08 1002.12 1003.17 1003.47 1003.99 1004.86 1005.10 1005.10 1005.47 1005.40 1005.16 1005.26 1005.20 1005.43 1005.36 1005.92 1006.82 1007.08 1007.86 1008.99 1009.75 1010.72 1012.89 1014.58 1015.22 1015.28 1015.26 1015.23 1015.00 1014.70 1014.44 1014.17 1013.99 1014.05 1013.88 1013.78 1013.72 1013.94 1014.22 1014.23 1014.70 1014.93
999.90 1001.16 1003.30 1004.43 1006.09 1006.66 1006.79 1006.82 1006.76 1006.73 1006.94 1006.66 1005.98 1005.75 1005.76 1005.75 1005.82 1006.64 1007.18 1008.24 1009.85 1010.82 1012.12 1013.93 1015.42 1015.91 1016.03 1016.08 1016.01 1015.96 1015.95 1015.78 1015.58 1015.51 1015.50 1015.37 1015.32 1015.19 1015.23 1015.54 1015.77 1015.83 1016.11 1016.52
1003.06 1004.97 1007.34 1008.38 1009.51 1009.63 1009.66 1009.42 1009.06 1008.75 1008.30 1007.64 1007.05 1006.72 1006.87 1007.29 1007.51 1008.45 1008.98 1010.93 1011.40 1013.09 1014.66 1015.95 1016.94 1017.12 1017.13 1017.16 1017.12 1017.00 1017.01 1016.90 1016.83 1016.87 1016.85 1016.76 1016.67 1016.66 1016.85 1016.91 1017.24 1017.32 1017.62 1018.14
1006.45 1007.89 1010.29 1011.29 1011.58 1011.35 1011.14 1010.75 1010.21 1009.69 1009.04 1008.24 1007.61 1007.83 1008.23 1009.09 1009.81 1010.85 1011.49 1012.70 1014.29 1015.56 1016.67 1017.51 1018.10 1018.22 1018.21 1018.12 1018.01 1017.93 1017.89 1017.87 1017.80 1017.89 1017.88 1017.96 1017.98 1017.98 1018.09 1018.53 1018.74 1018.68 1018.84 1019.02
1008.89 1011.04 1012.19 1012.47 1012.37 1012.27 1011.87 1011.44 1010.83 1010.30 1009.61 1008.86 1008.83 1009.40 1010.33 1011.51 1012.36 1013.20 1014.56 1015.26 1016.43 1017.54 1018.27 1018.74 1018.98 1019.08 1019.10 1018.99 1018.86 1018.81 1018.77 1018.80 1018.80 1018.86 1019.08 1019.19 1019.28 1019.36 1019.57 1019.80 1019.94 1020.10 1020.25 1020.46
1011.12 1013.07 1013.46 1013.77 1013.68 1013.65 1013.22 1012.74 1011.97 1011.33 1010.51 1010.52 1010.84 1011.73 1013.13 1013.69 1014.56 1016.01 1016.89 1017.65 1018.39 1018.94 1019.52 1019.86 1020.02 1020.08 1020.06 1020.00 1019.97 1020.01 1019.94 1019.88 1019.91 1019.97 1020.19 1020.34 1020.48 1020.57 1020.62 1020.82 1021.40 1021.48 1021.77 1022.04
Wind_Speed
19 18 16 16 16 13 8 3 5 6 11 7 3 4 7 3 8 2 5 2 3 3 5 5 6 4 3 11 12 5 5 2 3 5 2 3 2 7 10 7 5 2 2 6
20 21 18 17 16 14 2 4 2 6 9 10 7 6 5 4 4 3 2 1 1 2 3 4 3 4 3 8 12 9 6 2 2 2 2 5 3 2 4 3 2 15 9 4
23 23 21 19 18 16 6 2 3 3 6 3 15 9 9 7 5 13 2 1 1 1 3 2 4 5 5 10 9 9 1 3 4 0 2 3 5 11 10 6 5 7 11 9
25 24 23 20 19 17 7 4 4 4 5 8 10 14 12 15 8 7 11 6 8 4 2 3 4 4 5 4 6 6 2 5 5 6 11 7 8 7 10 10 10 11 5 13
26 25 24 22 21 19 8 4 4 5 2 6 15 15 13 17 15 8 6 7 6 10 8 9 9 4 2 3 6 7 7 2 5 5 10 11 8 10 16 15 10 13 12 14
29 29 27 24 24 21 6 5 4 4 3 9 9 10 15 17 14 8 13 10 12 12 9 7 9 10 10 9 7 5 5 3 2 3 5 7 7 9 8 2 5 5 6 9
30 30 29 28 28 26 8 3 4 6 8 12 13 15 17 18 19 14 10 13 9 2 5 7 4 7 12 11 11 10 5 3 3 1 2 8 3 4 5 6 9 9 7 8
28 30 31 31 31 31 11 7 6 6 8 7 11 16 19 15 15 18 16 6 1 3 5 3 4 1 2 8 14 15 14 5 3 3 6 8 9 7 4 6 7 8 5 10
27 26 31 31 32 31 15 11 7 5 4 11 12 15 18 13 10 8 15 3 2 4 1 2 3 2 2 2 2 7 13 10 3 3 4 6 3 2 2 1 7 5 4 7
26 25 27 30 32 33 15 5 15 6 6 6 13 13 11 10 11 4 5 7 3 8 4 4 5 4 2 3 2 5 6 3 9 4 5 7 9 7 3 2 5 6 3 7
26 25 25 28 30 29 18 10 17 9 3 3 12 12 10 9 12 7 7 5 5 4 7 4 3 3 4 3 3 4 8 7 5 6 4 9 1 2 1 6 4 7 11 9
25 25 25 23 29 29 27 6 11 9 4 1 2 4 5 22 24 11 10 6 7 6 4 4 3 4 1 5 3 2 4 7 5 8 7 2 3 4 8 6 12 13 16 21
24 25 24 22 22 27 24 6 11 6 4 1 1 5 4 4 7 8 7 6 4 5 3 4 3 4 5 5 5 3 3 4 4 0 3 7 5 3 11 13 14 17 17 19
25 25 25 24 22 19 18 7 8 6 4 2 3 5 4 6 4 6 4 4 5 3 2 2 3 3 4 3 1 3 2 3 4 5 7 11 4 11 15 17 14 17 20 15
25 25 26 23 22 22 13 8 6 4 4 4 3 3 7 9 10 6 3 6 6 4 4 2 2 1 2 0 1 3 3 3 3 5 2 3 9 13 13 14 14 15 15 16
23 26 28 25 23 26 7 5 5 3 2 2 3 2 3 12 11 14 10 6 9 5 3 3 4 3 2 2 3 1 2 4 4 1 7 6 7 8 11 10 14 12 11 13
25 28 27 28 27 10 3 4 7 14 1 3 1 1 1 7 5 3 5 5 2 4 2 3 2 2 4 2 4 4 6 8 8 6 8 3 2 5 9 9 11 8 7 12
23 31 27 29 24 10 2 3 20 10 4 2 3 2 1 5 3 3 2 3 3 3 3 1 4 3 2 3 5 6 10 11 4 12 10 9 10 5 8 8 10 11 13 14
28 30 30 11 4 2 4 15 9 3 3 5 4 4 2 3 2 4 3 5 3 3 3 4 3 3 2 6 8 9 10 8 12 13 11 8 7 8 8 8 10 8 8 10
26 10 4 4 3 24 10 4 2 1 1 1 2 1 3 1 3 2 3 1 3 3 1 3 3 4 9 9 8 8 9 10 11 11 9 11 9 8 6 8 6 6 7 9
4 2 4 11 6 4 2 3 2 3 3 1 1 1 2 0 3 3 2 3 2 4 2 2 2 3 5 9 9 9 9 9 9 8 7 7 6 6 6 8 8 9 10 10
6 8 6 4 5 3 4 2 2 3 3 3 1 2 1 2 1 3 1 3 1 3 3 4 3 4 7 9 9 10 10 9 9 10 9 8 9 8 9 9 10 12 12 11
5 6 6 4 6 10 5 3 3 3 5 5 4 3 2 1 3 4 2 4 3 2 4 3 3 6 7 8 7 9 10 10 10 11 10 12 13 14 13 12 12 13 14 12
7 7 9 5 5 4 3 2 2 3 3 4 3 3 3 3 5 3 5 3 3 4 3 3 3 7 7 7 7 8 10 11 12 12 12 13 14 14 14 13 12 13 14 13
6 6 6 4 2 1 2 3 2 3 4 3 1 4 4 5 5 4 3 4 5 4 2 2 3 4 5 6 8 8 8 8 10 10 11 11 12 13 14 13 12 13 13 14
6 8 3 3 2 5 3 4 3 5 5 2 3 4 5 6 4 5 5 3 2 2 1 2 2 4 5 5 7 8 8 9 10 10 11 11 12 13 13 14 13 14 14 15
6 4 2 2 2 2 3 3 4 5 3 3 3 6 5 3 4 4 3 3 3 3 3 4 6 6 6 6 8 8 8 10 10 11 11 11 11 11 13 15 13 13 14 13
Wind_Direction
265 257 253 255 257 260 266 247 246 165 146 202 186 181 177 243 281 287 260 267 268 305 328 348 11 24 61 1 11 46 360 129 237 247 227 111 169 218 223 226 206 244 285 238
259 251 246 247 245 238 264 226 285 199 178 212 207 137 170 225 247 213 234 231 350 337 333 317 26 334 311 23 15 1 345 25 152 346 356 27 69 289 227 195 217 247 251 253
255 249 244 238 236 234 221 163 220 222 230 179 215 169 191 199 227 240 226 227 267 139 291 296 305 328 318 4 335 307 232 60 29 186 55 348 307 319 309 278 253 257 244 263
247 243 240 233 230 226 211 175 225 182 210 207 199 202 189 199 215 213 201 218 213 183 258 305 271 268 310 326 352 344 296 208 170 265 292 280 266 282 301 279 258 249 252 256
238 235 231 228 219 221 222 191 187 196 227 248 192 194 198 196 204 188 203 227 187 202 217 231 274 309 29 294 351 4 354 281 185 226 225 247 266 280 288 265 260 265 263 265
235 232 227 220 217 203 213 203 185 264 184 207 196 190 184 203 182 225 232 217 223 238 241 247 255 253 264 255 285 310 307 329 159 226 227 242 269 243 221 232 227 234 294 305
234 229 225 217 212 205 208 159 168 209 240 200 204 190 198 200 203 212 213 219 211 155 27 352 295 260 251 240 240 212 251 334 308 209 285 234 259 250 214 238 262 243 259 311
235 226 220 217 211 207 205 204 203 197 234 228 211 193 188 199 197 213 222 210 214 105 267 269 272 248 263 226 223 211 204 197 254 226 217 306 292 263 217 205 291 20 356 358
233 227 217 215 211 209 206 211 191 217 198 214 204 199 187 190 190 209 225 113 165 68 178 178 248 241 262 244 236 193 180 190 194 200 204 236 251 123 19 54 261 7 342 312
225 222 214 211 213 210 201 187 196 217 225 213 189 189 187 176 175 200 150 180 198 168 183 213 211 227 256 254 222 162 170 175 214 230 261 276 258 292 335 190 322 303 245 275
215 214 206 209 206 199 195 197 187 193 170 238 204 175 160 164 176 173 152 116 178 171 189 209 188 188 232 243 204 178 175 194 186 209 240 267 113 135 346 335 280 270 306 298
201 203 197 210 200 198 190 194 177 177 192 329 296 255 183 183 175 168 170 185 151 171 159 195 189 201 198 207 235 119 193 202 190 198 205 312 16 17 302 283 289 306 307 302
197 196 189 194 195 192 186 155 152 134 128 154 301 192 193 118 204 175 165 223 164 182 183 158 191 208 160 174 223 210 243 179 226 16 249 263 288 286 16 337 318 312 305 289
197 189 180 185 184 194 152 152 150 124 110 139 191 229 211 172 197 171 192 141 72 94 155 155 156 201 193 199 235 214 221 154 231 262 290 326 298 12 359 339 337 342 335 318
179 174 171 172 172 173 120 125 145 160 123 151 187 180 203 187 185 200 172 154 175 236 219 111 238 186 163 31 47 230 197 227 238 286 31 311 306 327 349 341 341 349 354 356
167 170 164 157 157 127 123 118 198 160 137 119 148 285 167 192 191 206 217 193 199 201 195 192 188 238 164 183 237 347 59 65 54 264 321 292 289 303 9 342 344 352 12 16
154 152 156 155 144 126 128 162 146 174 155 101 68 287 235 160 156 150 188 174 191 175 179 187 187 241 180 174 244 43 3 356 344 6 348 257 19 329 356 352 357 3 23 48
134 140 142 140 136 118 75 1 138 131 101 95 121 236 160 163 141 131 149 147 135 141 153 90 182 135 179 225 58 26 16 351 338 352 334 303 297 358 6 357 24 14 22 35
123 130 127 117 75 86 82 106 78 64 115 156 165 167 137 126 112 122 180 192 155 108 164 198 165 149 142 36 18 10 5 349 321 322 325 1 8 1 10 9 30 34 33 45
93 78 72 102 127 117 105 42 74 61 25 82 163 98 149 156 161 120 136 342 115 143 164 98 79 85 76 34 19 3 345 336 336 337 347 350 358 351 22 30 34 47 54 65
62 84 73 108 81 73 76 108 153 151 159 159 125 138 156 290 108 106 12 118 118 139 136 193 88 75 25 357 7 4 349 346 350 344 7 10 14 358 36 51 53 62 65 71
79 102 85 52 31 48 88 83 91 51 56 3 24 65 77 86 139 107 149 89 88 79 24 67 74 43 16 360 4 9 4 8 19 22 29 33 43 47 57 58 63 69 71 72
46 50 67 31 349 48 50 23 31 49 358 348 349 62 76 42 40 86 151 99 85 86 49 74 50 16 26 17 18 31 31 37 44 44 51 58 60 58 63 68 63 71 69 68
57 47 38 66 7 37 30 347 358 345 326 335 332 58 44 355 56 349 74 38 53 79 80 87 23 15 35 42 48 59 55 53 54 56 58 61 64 64 63 64 66 73 71 68
62 45 52 60 309 347 331 302 266 341 303 307 162 56 48 26 71 30 94 58 68 44 89 92 21 40 54 59 54 62 63 62 65 62 61 61 64 67 67 63 66 68 71 69
68 47 50 336 43 350 358 351 351 348 336 307 26 71 64 46 48 49 32 82 111 141 85 35 40 55 55 63 69 64 66 70 71 67 66 67 66 71 75 71 66 67 69 69
55 42 45 46 72 312 323 334 329 321 334 57 54 55 50 61 62 62 23 74 93 101 75 48 36 39 37 42 51 49 54 57 55 66 67 69 70 73 71 69 63 68 69 72